COSMOS 2491 DEB, 45172

Orbit data source: Space-Track

COSMOS 2491 DEB, 45172 is space debris in LEO originally from a launch on Wed, 25 Dec 2013 UTC launched from the Plesetsk Missile And Space Complex (PKMTR). Debris objects in space refer to the collection of defunct objects orbiting the Earth. Examples of debris include non-operational satellites, rocket bodies, and fragments generated from explosions, collisions, or faulty payload assembly.

Loading next visibility...
Identifier
45172, 2013-076AD
Orbit
LEO
Country
Flag of CISCIS
Related business
Manufacturer
TsNIIKhM
Mission
Spacecraft
Bus & Motor
Unknown
Mass
Unknown
Launch date (UTC)
2013-12-25 (12 years ago)
Launch vehicle
Unknown
Launch site
Plesetsk Missile And Space Complex (PKMTR)
Object type
Payload
Rocket body
Debris
Shape & HBR
Unknown shape, 0.1 m
Radar Cross Section
Small (<0.1 m²)

Expand to show TLE details & history
Last TLE update: 3 days ago

TLE from 3 days ago
0 COSMOS 2491 DEB
1 45172U 13076AD  25286.21596390  .00003323  00000-0  16513-1 0  9992
2 45172  82.4569 272.0053 0153111   6.4513 353.8505 12.67392017262989
Epoch: 2025-10-13T05:10Z
TLE epoch observation values (Epoch: 2025-10-13T05:10:59.280Z)
Latitude
0.00003°
Longitude
172.23637°
Altitude
1,277.024 km
Speed
7.272 km/s
True Right ascension
18h 08m 01s
True Declination
0° 00' 00"
Sunlit
Object was in daylight at epoch
Visualization orbit readout
Latitude
Unknown
Longitude
Unknown
Altitude
Unknown
Speed
Unknown
Apparent Right ascension
Unknown
Apparent Declination
Unknown
Sunlit
N/A
Visualization observer readout
Local Sidereal Time
01:51:57
Azimuth
Unknown
Elevation
Unknown
Doppler factor
Unknown
Orbital elements
Apogee altitude
1,508.836 km
Perigee altitude
1,270.962 km
Semi-major axis
7,768.036 km
Eccentricity
0.01531
Inclination
82.4569°
RAAN
272.0053°
Arg. of periapsis
6.4513°
True anomaly
353.65891°
Mean anomaly
353.8505°
Eccentric anomaly
353.75507°
Mean motion
3.17012 °/min
Orbital period
113.56 mins
BSTAR
0.016513
Loading maneuver chart data...
Computing Atmospheric mass density...
Loading historical data...
Loading historical data...
Loading historical data...
Loading historical data...
Loading historical data...
Loading historical data...
Loading historical data...

Documentation

Showing up to 5 results
|